Terminal Aerodrome Forecast
Issued by NWS Pueblo, CO

Home | Current Version | Previous Version | Text Only | Print | Product List | Glossary On
Versions: 1 2 3 4 5 6 7 8 9 10 11 12 13 14 15 16 17 18 19 20 21 22 23 24 25 26 27 28 29 30
000
FTUS45 KPUB 251123
TAFALS
TAF
KALS 251123Z 2512/2612 VRB05KT P6SM FEW120 BKN150
     FM251800 25010KT P6SM VCTS SCT050CB BKN100
     FM260300 31007KT P6SM SCT070 SCT100=

USA.gov is the U.S. government's official web portal to all federal, state and local government web resources and services.